Upington, South Africa

4:11 PM SAST on February 26, 2017 (GMT +0200)
Upington

Weather History for FAUP - February, 2013

Change the Weather History Date:

Saturday, February 16, 2013

  Actual Average Record
Temperature  
Mean Temperature 85 °F -  
Max Temperature 102 °F 91 °F 102 °F (2001)
Min Temperature 68 °F 63 °F 60 °F (2002)
Cooling Degree Days 20    
Growing Degree Days 35 (Base 50)    
Moisture  
Dew Point 35 °F    
Average Humidity 17    
Maximum Humidity 40    
Minimum Humidity 4    
Precipitation  
Precipitation 0.00 in 0.05 in - ()
Sea Level Pressure  
Sea Level Pressure 29.95 in    
Wind  
Wind Speed 5 mph ()    
Max Wind Speed 10 mph    
Max Gust Speed -    
Visibility 6.2 miles    
Events      
Averages and records for this station are not official NWS values.
T = Trace of Precipitation, MM = Missing Value Source: Averaged Metar Reports

Daily Weather History Graph

Daily Weather History Graph

Search for Another Location

Airport or City:

Trip Planner

Search our weather history database for the weather conditions in past years. The results will help you decide how hot, cold, wet, or windy it might be!

Date:

Astronomy

Feb. 16, 2013 Rise Set
Actual Time 6:18 AM SAST 7:19 PM SAST
Civil Twilight 5:53 AM SAST 7:43 PM SAST
Nautical Twilight 5:24 AM SAST 8:12 PM SAST
Astronomical Twilight 4:54 AM SAST 8:42 PM SAST
Moon 12:03 PM SAST (2/16) 11:07 PM SAST (2/16)
Length of Visible Light 13h 50m
Length of Day
13h 01m
Waxing Crescent, 36% of the Moon is Illuminated
Feb 16
Waxing Crescent
Feb 17
First Quarter
Feb 25
Full
Mar 4
Last Quarter
Mar 11
New

Hourly Weather History & Observations

Time (SAST) Temp. Dew Point Humidity Pressure Visibility Wind Dir Wind Speed Gust Speed Precip Events Conditions
12:00 AM 71.6 °F 24.8 °F 17% 29.95 in - SSE 2.3 mph - N/A   Unknown
1:00 AM 71.6 °F 23.0 °F 16% 29.98 in - SE 5.8 mph - N/A   Clear
2:00 AM 71 °F 23 °F 8%  in 25 mi NE 2.3 mph - -  
2:00 AM 69.8 °F 23.0 °F 17% 29.95 in - NE 1.2 mph - N/A   Clear
3:00 AM 73.4 °F 32.0 °F 22% 29.95 in - ESE 8.1 mph - N/A   Clear
4:00 AM 73.4 °F 39.2 °F 29% 29.95 in - ESE 9.2 mph - N/A   Clear
5:00 AM 69 °F 41 °F 25%  in 25 mi ESE 4.6 mph - -  
5:00 AM 68.0 °F 41.0 °F 37% 29.95 in - ESE 4.6 mph - N/A   Clear
6:00 AM 69.8 °F 44.6 °F 40% 29.98 in - ESE 4.6 mph - N/A   Clear
7:00 AM 71.6 °F 44.6 °F 38% 29.98 in - ESE 4.6 mph - N/A   Clear
7:32 AM 75.2 °F 46.4 °F 36% 30.01 in - ESE 4.6 mph - N/A   Clear
8:00 AM 78 °F 47 °F 23%  in 25 mi East 9.2 mph - -  
8:00 AM 77.0 °F 46.4 °F 34% 30.01 in - East 8.1 mph - N/A   Clear
8:33 AM 80.6 °F 46.4 °F 30% 30.01 in - ESE 8.1 mph - N/A   Clear
9:00 AM 82.4 °F 46.4 °F 28% 30.01 in - ESE 6.9 mph - N/A   Clear
9:20 AM 86.0 °F 44.6 °F 23% 30.01 in - East 9.2 mph - N/A   Clear
10:00 AM 86.0 °F 44.6 °F 23% 30.01 in - ENE 9.2 mph - N/A   Clear
10:16 AM 89.6 °F 42.8 °F 20% 30.01 in - ENE 6.9 mph - N/A   Clear
10:46 AM 95.0 °F 35.6 °F 12% 30.01 in - East 6.9 mph - N/A   Clear
11:00 AM 94 °F 30 °F 5%  in 25 mi East 6.9 mph - -  
11:00 AM 93.2 °F 30.2 °F 11% 29.98 in - East 5.8 mph - N/A   Clear
12:00 PM 95.0 °F 30.2 °F 10% 29.98 in 6.2 mi SE 4.6 mph - N/A   Partly Cloudy
1:00 PM 96.8 °F 32.0 °F 10% 29.95 in 6.2 mi South 6.9 mph - N/A   Partly Cloudy
2:00 PM 99 °F 31 °F 4%  in 25 mi South 8.1 mph - -   Scattered Clouds
2:00 PM 98.6 °F 32.0 °F 10% 29.92 in 6.2 mi South 6.9 mph - N/A   Partly Cloudy
3:00 PM 100.4 °F 32.0 °F 9% 29.89 in 6.2 mi SSE 9.2 mph - N/A   Partly Cloudy
4:00 PM 100.4 °F 32.0 °F 9% 29.89 in - SSW 9.2 mph - N/A   Unknown
5:00 PM 101 °F 33 °F 4%  in 25 mi SSW 10.4 mph - -   Scattered Clouds
5:00 PM 100.4 °F 32.0 °F 9% 29.86 in 6.2 mi SSW 10.4 mph - N/A   Partly Cloudy
6:00 PM 98.6 °F 32.0 °F 10% 29.86 in 6.2 mi SSW 10.4 mph - N/A   Partly Cloudy
7:00 PM 96.8 °F 33.8 °F 11% 29.86 in 6.2 mi SSW 9.2 mph - N/A   Partly Cloudy
8:00 PM 89 °F 32 °F 6%  in 25 mi SSW 6.9 mph - -   Scattered Clouds
8:00 PM 87.8 °F 32.0 °F 14% 29.86 in 6.2 mi SSW 6.9 mph - N/A   Partly Cloudy
9:00 PM 84.2 °F 30.2 °F 14% 29.89 in - SSW 4.6 mph - N/A   Unknown
10:00 PM 84.2 °F 23.0 °F 11% 29.92 in - SSE 5.8 mph - N/A   Unknown
11:00 PM 79 °F 23 °F 6%  in 25 mi ENE 5.8 mph - -  
11:00 PM 78.8 °F 23.0 °F 13% 29.92 in - ENE 4.6 mph - N/A   Clear